This is the latest recevied weather packets stored in our database for station/object ZL2IH. If no packets are shown the sender has not sent any weather packets the latest 10 day(s).
| Time | Temp. | Humidity | Pressure | Rain* | Wind** | Luminosity | Snow |
|---|---|---|---|---|---|---|---|
| 1777407018 | 12.78° C | 100% | 1029 hPa | 0 mm | - | - | - |
| 1777398018 | 11.11° C | 100% | 1028.3 hPa | 0 mm | - | - | - |
| 1777395618 | 11.11° C | 100% | 1028.2 hPa | 0 mm | - | - | - |
| 1777393818 | 11.11° C | 100% | 1028.1 hPa | 0 mm | - | - | - |
| 1777391418 | 10.56° C | 100% | 1028.1 hPa | 0 mm | - | - | - |
| 1777390818 | 10° C | 100% | 1028.1 hPa | 0 mm | - | - | - |
| 1777384837 | 10° C | 100% | 1028.4 hPa | 0 mm | - | - | - |
| 1777383617 | 10.56° C | 100% | 1028.4 hPa | 0 mm | - | - | - |
| 1777374018 | 10.56° C | 100% | 1028.5 hPa | 0 mm | - | - | - |
| 1777368017 | 10.56° C | 100% | 1027.8 hPa | 0 mm | - | - | - |
| 1777364437 | 11.11° C | 100% | 1027.2 hPa | 0 mm | - | - | - |
| 1777359617 | 12.22° C | 100% | 1026.8 hPa | 0 mm | - | - | - |
| 1777356016 | 13.33° C | 100% | 1026.4 hPa | 0 mm | - | - | - |
| 1777354217 | 13.89° C | 100% | 1026.3 hPa | 0 mm | - | - | - |
| 1777353617 | 13.89° C | 100% | 1026.2 hPa | 0 mm | - | - | - |
| 1777348818 | 16.11° C | 100% | 1026.2 hPa | 0 mm | - | - | - |
| 1777342218 | 18.33° C | 100% | 1025.9 hPa | 0 mm | - | - | - |
| 1777338619 | 17.78° C | 100% | 1026.2 hPa | 0 mm | - | - | - |
| 1777335618 | 16.67° C | 100% | 1026.7 hPa | 0 mm | - | - | - |
| 1777329658 | 15° C | 100% | 1026.6 hPa | 0 mm | - | - | - |
| 1777328418 | 14.44° C | 100% | 1026.4 hPa | 0 mm | - | - | - |
| 1777321818 | 11.11° C | 100% | 1026.2 hPa | 0 mm | - | - | - |
| 1777318218 | 8.33° C | 100% | 1025.4 hPa | 0 mm | - | - | - |
| 1777315218 | 8.33° C | 100% | 1024.9 hPa | 0 mm | - | - | - |
| 1777313418 | 8.33° C | 100% | 1024.8 hPa | 0 mm | - | - | - |
* Rain latest hour (hover to see other rain measurements)
** Current wind speed in m/s (hover to see current wind gust speed)